Weather observations for the past three days for
Munising - Munising Lakeshore Observation
Imperial (Metric)
Date Time (edt) Wind (mph) Vis. (mi.) Weather Sky Cond. Temperature (ºF) Relative Humidity Wind Chill (°F) Heat Index (°F) Pressure Precipitation (in)
Air Dwpt 6 hour altimeter (in) sea level (mb) 1 hr 3 hr 6 hr
Max. Min.
23 20:56 E 6 0.00 NULL NULL 64 61 90% 30.07 1018.4 0.01
23 19:56 NE 3 0.00 NULL NULL 63 60.1 66.9 62.1 90% 30.06 1018.1 0.06 0.32
23 18:56 Calm 0.00 NULL NULL 62.1 61 96% 30.06 1017.8 0.21
23 17:56 W 3 0.00 NULL NULL 63 61 93% 30.05 1017.8 0.04
23 16:56 NW 7 0.00 NULL NULL 64 62.1 93% 30.05 1017.7 0.01
23 15:56 N 6 0.00 NULL NULL 66 61 84% 30.04 1017.3
23 14:56 NW 5 0.00 NULL NULL 64.9 62.1 90% 30.05 1017.5 0.01
23 13:56 NW 6 0.00 NULL NULL 64.9 61 66 60.1 87% 30.05 1017.6 0.01
23 12:56 Calm 0.00 NULL NULL 64.9 61 87% 30.05 1017.6
23 11:56 Calm 0.00 NULL NULL 66 61 84% 30.04 1017.2
23 10:56 Calm 0.00 NULL NULL 64 60.1 87% 30.03 1017.0 0.01
23 09:56 S 5 0.00 NULL NULL 61 59 93% 30.03 1016.8
23 08:56 Calm 0.00 NULL NULL 60.1 59 96% 30.03 1016.9 0.01
23 07:56 Calm 0.00 NULL NULL 60.1 57.9 63 59 93% 30.02 1016.7 0.01 0.12
23 06:56 Calm 0.00 NULL NULL 60.1 59 96% 30.01 1016.1
23 05:56 Calm 0.00 NULL NULL 60.1 57.9 93% 30 1015.9
23 04:56 Calm 0.00 NULL NULL 59 59 100% 30 1015.9 0.06 0.11
23 03:56 S 3 0.00 NULL NULL 59 57.9 96% 30 1016.0 0.03
23 02:56 S 5 0.00 NULL NULL 61 57.9 90% 30 1015.8 0.02
23 01:56 NE 3 0.00 NULL NULL 62.1 55 68 62.1 78% 30.01 1016.0
23 00:56 Calm 0.00 NULL NULL 63 53.1 70% 30 1015.9
22 23:56 NE 5 0.00 NULL NULL 64.9 55 70% 30 1015.8
22 22:56 NE 5 0.00 NULL NULL 64.9 55.9 73% 30 1015.9
22 21:56 NE 6 0.00 NULL NULL 66.9 59 76% 29.99 1015.6
22 20:56 N 6 0.00 NULL NULL 66.9 57.9 73% 29.99 1015.5
22 19:56 N 7 0.00 NULL NULL 68 55.9 70 68 65% 29.98 1015.4
22 18:56 Calm 0.00 NULL NULL 69.1 55.9 63% 29.98 1015.3
22 17:56 NE 8 0.00 NULL NULL 69.1 54 59% 29.98 1015.2
22 16:56 NE 12 0.00 NULL NULL 69.1 57.9 68% 29.98 1015.2
22 15:56 NE 8 0.00 NULL NULL 69.1 57 66% 29.99 1015.6
22 14:56 NE 8 0.00 NULL NULL 69.1 59 70% 30 1016.1
22 13:56 NE 8 0.00 NULL NULL 69.1 59 73.9 52 70% 30.01 1016.3
22 12:56 NE 8 0.00 NULL NULL 69.1 59 70% 30.02 1016.7
22 11:56 Calm 0.00 NULL NULL 72 57.9 61% 30.03 1017.0
22 10:56 Calm 0.00 NULL NULL 71.1 55 57% 30.04 1017.2
22 09:56 Calm 0.00 NULL NULL 66 54 65% 30.05 1017.6
22 08:56 Calm 0.00 NULL NULL 63 50 63% 30.06 1017.9
22 07:56 S 5 0.00 NULL NULL 52 48 54 46.9 86% 30.05 1017.9
22 05:56 SW 3 0.00 NULL NULL 46.9 44.1 90% 30.05 1017.7
22 04:56 Calm 0.00 NULL NULL 48 45 89% 30.05 1017.7
22 03:56 S 3 0.00 NULL NULL 50 46 86% 30.07 1018.5
22 02:56 S 7 0.00 NULL NULL 50 46.9 89% 48 30.09 1019.3
22 01:56 S 8 0.00 NULL NULL 50 48 66.9 50 93% 47 30.12 1019.9
22 00:56 S 6 0.00 NULL NULL 51.1 48.9 92% 30.13 1020.3
21 23:56 S 6 0.00 NULL NULL 52 50 93% 30.12 1020.3
21 22:56 S 5 0.00 NULL NULL 55 52 90% 30.13 1020.3
21 21:56 Calm 0.00 NULL NULL 59 52 78% 30.12 1020.1
21 20:56 Calm 0.00 NULL NULL 66 55.9 70% 30.12 1020.0
21 19:56 NE 6 0.00 NULL NULL 66.9 55 68 66 66% 30.13 1020.2
21 18:56 NE 7 0.00 NULL NULL 66.9 54 63% 30.13 1020.5
21 17:56 NE 10 0.00 NULL NULL 68 53.1 59% 30.14 1020.9
21 16:56 NE 12 0.00 NULL NULL 66.9 54 63% 30.16 1021.4
21 15:56 NE 15 0.00 NULL NULL 66.9 57.9 73% 30.17 1021.8
21 14:56 NE 15 0.00 NULL NULL 66 59 78% 30.17 1021.8
21 13:56 NE 12 0.00 NULL NULL 66.9 59 68 54 76% 30.18 1022.1
21 12:56 NE 10 0.00 NULL NULL 66.9 59 76% 30.18 1022.1
21 11:56 NE 10 0.00 NULL NULL 68 57.9 70% 30.18 1022.0
21 10:56 NE 5 0.00 NULL NULL 66.9 57.9 73% 30.17 1021.7
21 09:56 Calm 0.00 NULL NULL 66.9 57 71% 30.17 1021.7
21 08:56 Calm 0.00 NULL NULL 64 57 78% 30.18 1021.8
21 07:56 S 6 0.00 NULL NULL 54 51.1 54 48.9 90% 30.17 1021.7
21 05:56 S 6 0.00 NULL NULL 50 48 93% 48 30.14 1020.6
21 04:56 S 6 0.00 NULL NULL 51.1 48.9 92% 30.13 1020.3
21 03:56 S 6 0.00 NULL NULL 52 50 93% 30.12 1020.0
21 02:56 S 6 0.00 NULL NULL 53.1 51.1 93% 30.12 1020.1
21 01:56 S 6 0.00 NULL NULL 53.1 51.1 66 53.1 93% 30.13 1020.2
21 00:56 S 3 0.00 NULL NULL 54 52 93% 30.13 1020.2
20 23:56 Calm 0.00 NULL NULL 55.9 54 93% 30.12 1019.8
20 22:56 S 3 0.00 NULL NULL 57.9 55 90% 30.12 1019.9
20 21:56 N 5 0.00 NULL NULL 64 57.9 81% 30.11 1019.5
Date Time (edt) Wind (mph) Vis. (mi.) Weather Sky Cond. Air Dwpt Max. Min. Relative Humidity Wind Chill (°F) Heat Index (°F) altimeter (in) sea level (mb) 1 hr 3 hr 6 hr
6 hour
Temperature (ºF) Pressure Precipitation (in)